Simultaneous Nadir Overpasses (SNOs) Predictions

Prediction of SNOs between NOAA-19 and TERRA Satellite Orbit:

Table of predicted SNOs for the next 14.0 days since TLE Epoch: 9/30/2023
Index Date (NOAA-19) Time (NOAA-19) Lat,Lon (NOAA-19) SZA (NOAA-19 ) Date (TERRA) Time (TERRA) Lat,Lon (TERRA) SZA (TERRA ) Distance(km) Time Diff (sec)
1 09/30/2023 19:53:04 -80.78, 92.33 94.84 09/30/2023 19:53:17 -80.77, 92.37 94.83 0.75 13
2 10/02/2023 23:43:24 80.77,-145.40 86.00 10/02/2023 23:43:23 80.77,-145.28 86.00 2.29 1
3 10/05/2023 03:33:48 -80.78, -22.74 93.13 10/05/2023 03:33:29 -80.77, -22.80 93.16 1.50 19
4 10/07/2023 06:33:12 -80.76, -68.14 92.37 10/07/2023 06:34:13 -80.74, -68.30 92.38 3.16 61
5 10/07/2023 07:24:08 80.78, 99.72 87.71 10/07/2023 07:23:33 80.78, 99.79 87.71 1.29 35
6 10/09/2023 10:23:32 80.76, 54.43 88.48 10/09/2023 10:24:16 80.77, 54.42 88.50 0.72 44
7 10/09/2023 11:14:31 -80.78,-137.75 91.44 10/09/2023 11:13:38 -80.79,-137.65 91.45 2.28 53
8 10/11/2023 14:13:55 -80.75, 176.70 90.71 10/11/2023 14:14:21 -80.76, 176.86 90.68 3.19 26
9 10/11/2023 15:04:52 80.77, -15.42 89.38 10/11/2023 15:03:42 80.76, -15.47 89.34 1.24 70



Historial Predications of SNOs between NOAA-19 and TERRA
